Dewpoint
76 73 73 70 70 70 69 69 59 51 51 47 46 46 46 49 49 48 49 51 50 53 53 54 53 55 56 56 58 60 62 60 59 57 54 66 69 68 69 69 69 73 72 73 73 75 75 75 75 74 74 74 74 74 76 76 75 76 74 75 75 75 75 75 75 74 74 74 74 74 74 75 75 75 76 76 76 76 75 75 75 76 76 75 76 76 76 76 76 75 76 76 76 75 76 76 75
69 71 72 70 68 69 66 67 54 45 45 44 46 47 47 48 48 47 48 50 50 54 55 56 57 58 57 57 57 59 60 62 62 62 64 68 68 69 69 69 71 70 72 73 73 74 74 75 74 75 74 75 74 74 76 76 76 76 75 75 75 75 75 74 74 75 74 74 74 74 74 74 74 75 75 76 76 75 74 75 75 77 77 76 75 75 76 76 76 76 76 76 76 76 75 76 76
68 70 69 69 68 67 64 62 45 40 40 40 45 47 49 48 47 49 51 51 52 54 56 56 56 55 55 56 56 56 56 62 62 63 65 69 66 68 68 71 71 72 71 73 73 72 75 75 74 74 74 75 75 75 75 75 75 76 75 75 76 76 76 75 75 75 74 74 75 74 74 74 74 75 75 75 75 74 74 74 74 75 77 76 76 77 77 76 76 75 75 75 76 77 76 77 76
68 69 67 68 67 68 63 48 42 37 37 40 44 49 49 49 51 53 53 54 53 54 54 53 54 57 54 54 56 59 58 60 62 63 64 66 67 68 68 69 71 72 71 72 72 73 74 73 74 74 73 75 76 76 75 74 74 74 75 75 75 76 75 76 76 76 75 75 74 74 74 74 74 74 74 74 74 74 74 74 73 75 77 76 76 76 75 75 76 76 75 76 77 76 76 76 75
65 67 67 66 65 59 54 41 36 34 35 37 40 49 50 51 52 53 54 54 54 54 54 54 56 59 59 57 58 56 60 63 63 64 64 67 68 68 69 70 71 69 72 73 71 71 74 74 74 73 73 74 76 76 76 74 75 75 74 75 74 74 75 75 76 75 75 75 74 73 73 73 74 74 74 74 74 74 73 73 74 76 76 75 76 76 75 75 75 76 76 76 75 76 74 76 75
63 64 66 66 65 61 54 36 33 31 38 38 41 46 49 51 53 54 54 55 55 54 52 52 53 54 55 58 60 59 63 60 64 64 66 66 68 68 70 69 69 69 75 73 73 73 73 75 75 76 76 74 76 76 77 75 75 74 75 75 75 74 74 74 75 75 75 75 74 73 73 73 74 73 73 73 73 73 73 74 74 75 76 76 76 75 75 75 75 75 75 75 76 76 74 75 75
64 65 65 67 65 61 39 34 33 32 38 41 40 46 48 50 53 54 55 55 55 54 54 54 54 54 54 59 61 62 65 63 64 65 66 67 68 69 69 67 68 70 69 70 69 70 72 76 75 76 76 76 76 77 77 77 75 74 73 75 74 75 74 74 74 75 74 74 73 73 73 73 73 73 73 73 73 73 72 74 76 73 74 74 75 75 74 74 74 75 74 74 75 75 74 75 75
66 65 62 59 49 46 35 33 35 35 38 43 44 46 50 50 52 52 54 53 52 52 53 53 54 54 55 59 57 64 65 68 66 67 67 68 69 69 68 67 67 68 68 70 71 72 77 76 76 76 76 76 77 76 77 77 76 76 74 74 74 74 73 73 73 74 74 73 73 73 73 73 73 73 72 72 72 73 73 75 73 73 73 74 75 75 75 75 75 76 75 75 76 75 75 75 75
63 62 59 56 43 36 34 33 36 39 42 44 47 51 55 52 53 52 52 53 53 53 53 53 53 53 57 57 59 64 65 68 67 69 68 68 68 69 68 67 67 68 68 69 71 73 74 76 76 76 76 77 76 77 77 77 76 76 75 75 75 74 73 73 73 73 72 72 72 72 72 72 72 71 71 70 73 73 73 75 73 72 73 74 73 74 76 76 76 75 75 76 76 76 76 76 76
64 61 55 47 41 36 33 35 35 40 42 45 47 50 51 52 51 52 51 51 53 52 51 52 54 54 57 58 60 62 65 68 67 68 68 68 69 69 68 67 68 68 67 68 70 69 73 77 76 76 76 77 77 77 77 77 76 76 76 76 76 74 73 73 73 72 72 71 71 72 72 72 71 70 70 71 73 71 74 74 73 73 73 74 74 75 76 76 76 76 76 76 76 76 76 76 76
59 57 53 48 39 35 35 32 37 41 42 46 46 50 51 51 51 51 51 52 52 52 52 53 55 54 56 57 60 66 67 66 66 66 68 69 70 70 68 69 67 67 67 68 69 72 74 75 77 77 77 77 77 77 77 77 76 76 76 76 75 75 73 72 73 73 72 73 73 71 71 71 71 70 71 71 71 74 75 75 74 73 73 73 74 75 76 75 76 77 76 77 76 76 76 75 76
56 52 53 39 37 37 36 35 37 39 44 45 45 49 51 51 50 50 51 50 52 52 50 53 54 56 55 58 61 65 66 65 65 67 69 69 68 68 69 68 68 68 67 68 69 72 74 75 77 77 77 77 77 77 77 77 76 76 76 75 75 75 72 73 74 72 73 73 72 72 71 71 70 70 71 74 74 74 74 74 75 75 74 73 75 75 75 74 75 75 75 76 74 75 75 74 76
57 46 44 38 37 36 37 38 38 40 41 43 43 49 50 50 48 48 50 51 51 50 48 53 55 56 54 56 62 65 65 65 67 68 68 68 69 68 68 68 69 68 68 70 69 72 74 74 74 75 76 77 76 77 77 77 76 76 76 75 75 75 76 75 74 73 73 73 73 72 72 72 71 72 73 75 75 74 73 73 74 73 74 74 75 76 75 75 75 73 73 74 74 74 73 73 74
54 48 43 42 39 36 36 38 39 36 36 41 46 50 51 49 48 48 49 49 50 48 50 56 55 55 56 59 61 62 63 66 67 68 68 69 68 67 68 67 68 70 70 70 70 73 74 74 72 76 77 77 75 77 76 77 76 76 76 76 75 76 76 75 75 73 73 73 73 73 73 74 74 74 74 74 74 72 72 74 73 73 73 74 74 74 74 76 74 73 73 73 73 72 72 73 73
54 49 44 42 37 37 37 38 37 36 35 42 49 50 51 52 50 49 48 48 49 56 55 55 56 56 54 57 58 59 63 67 67 69 69 69 69 69 69 68 69 71 71 70 71 72 71 71 70 75 77 75 75 75 75 77 78 77 77 76 76 76 76 75 75 73 73 72 73 74 74 74 74 73 74 74 73 71 73 73 73 73 74 74 74 75 75 75 74 73 73 73 74 73 72 73 74
55 48 45 42 38 35 36 38 39 38 36 43 49 50 51 52 52 49 49 49 56 56 53 54 58 54 55 55 58 60 64 66 68 68 68 69 69 69 68 68 69 71 72 70 71 72 73 73 73 73 75 75 75 76 76 76 76 76 77 77 77 77 76 75 74 74 73 72 73 74 74 74 74 74 74 72 73 73 73 74 74 74 74 74 74 75 74 73 73 73 74 73 74 74 74 74 75
55 51 45 41 38 35 35 36 38 37 38 46 50 51 50 51 52 54 57 57 54 52 51 55 56 58 55 58 59 61 64 68 69 68 68 69 68 66 67 69 70 71 72 73 73 73 71 74 72 72 74 72 73 73 75 76 76 77 77 77 77 77 77 75 75 74 72 71 73 74 74 73 75 76 76 74 71 71 72 74 74 74 75 75 75 75 75 75 74 75 75 74 74 76 75 75 75
53 48 43 41 37 36 36 36 38 39 39 46 49 50 50 51 51 56 55 52 51 50 53 52 57 56 58 61 61 62 65 66 66 66 66 67 66 65 65 67 69 68 70 72 73 72 71 73 74 73 73 76 76 75 75 75 75 75 73 75 75 77 77 77 74 72 71 73 71 73 73 73 75 76 75 73 72 73 73 74 75 76 74 74 75 74 75 75 75 73 73 73 75 76 76 73 74
51 47 41 37 37 36 37 37 40 39 39 47 48 50 49 50 50 53 50 50 51 51 54 54 55 57 62 61 62 63 65 65 65 65 65 65 65 65 65 67 67 66 66 68 69 70 70 73 74 73 74 76 75 76 73 75 76 76 76 73 72 74 73 74 73 73 73 74 74 73 74 76 74 76 76 74 74 73 73 74 76 76 75 76 75 75 75 75 72 72 72 73 75 76 72 71 70
46 45 41 39 38 39 40 38 39 40 41 45 47 49 50 50 51 51 49 50 53 51 53 53 53 59 60 62 63 63 64 64 66 65 65 66 66 65 66 66 67 67 66 66 66 69 70 69 71 72 74 74 74 73 71 74 75 76 74 75 75 73 74 73 74 74 75 76 76 75 74 75 74 75 73 74 75 73 73 75 77 75 75 74 75 75 75 74 72 74 74 75 76 67 69 67 67
44 43 38 37 39 38 40 39 39 40 42 46 46 49 49 51 52 50 51 50 50 49 52 52 54 57 60 62 62 63 62 63 64 63 64 66 66 65 66 67 67 67 67 68 67 69 70 70 71 72 74 73 72 73 73 73 74 71 70 70 72 72 73 72 74 75 75 75 75 74 72 73 73 73 74 73 72 73 72 72 72 73 73 75 73 73 71 70 69 68 69 69 69 67 67 69 70
45 44 40 40 41 39 38 40 39 39 43 45 47 48 49 51 53 49 51 47 45 46 51 52 54 57 60 60 62 62 62 62 63 64 63 64 66 67 66 67 67 68 69 67 67 69 71 70 70 70 72 72 73 72 73 73 73 72 72 71 73 73 73 73 73 73 73 74 74 72 72 73 72 72 72 72 72 72 71 70 70 72 73 73 73 72 70 70 70 68 68 69 68 68 69 71 71
41 42 41 41 41 40 37 39 39 40 43 45 49 47 52 50 51 50 49 48 48 46 50 51 56 57 59 60 61 62 62 62 62 63 63 64 66 66 66 66 66 66 67 68 68 69 70 71 72 72 71 73 73 73 71 74 74 72 73 72 73 72 72 72 72 71 73 74 74 73 70 69 70 69 70 71 70 71 71 70 69 71 72 71 72 69 70 70 68 68 68 70 69 68 69 71 71
41 37 39 42 40 39 37 37 39 41 43 45 47 48 52 50 48 49 47 47 52 49 52 53 57 58 59 60 60 61 61 61 61 63 63 63 65 66 66 66 66 67 68 68 68 69 70 68 72 73 71 72 73 73 72 71 72 71 72 73 73 71 71 71 71 70 73 73 75 73 72 71 69 68 70 70 69 71 71 71 72 69 69 70 71 69 68 68 68 69 70 71 71 71 68 70 69
40 39 38 37 37 37 35 37 39 42 44 46 47 48 51 49 47 49 48 50 54 50 54 58 58 58 58 60 61 62 62 62 62 62 64 64 64 65 66 66 67 67 67 68 68 69 69 69 70 71 71 73 70 71 71 71 73 73 72 74 73 72 73 71 70 73 72 72 72 74 74 71 70 70 70 70 70 71 69 71 70 69 71 71 72 68 69 69 70 70 71 71 71 71 69 70 70
37 38 37 35 33 32 30 36 40 43 44 46 47 49 50 49 51 47 48 51 55 54 57 59 61 59 58 59 60 62 63 63 63 63 64 64 65 66 67 67 67 66 67 68 68 70 70 70 70 70 71 72 71 69 71 72 74 73 73 74 73 73 73 73 73 72 72 72 71 74 74 73 72 70 70 70 75 74 75 74 73 70 70 71 69 70 69 68 69 70 71 72 71 71 70 71 69
35 35 35 31 30 32 34 37 40 43 44 47 48 46 48 51 51 46 48 53 57 56 59 59 60 60 58 60 61 63 63 62 63 63 64 65 66 66 66 66 67 67 68 68 67 69 71 71 71 72 72 73 72 71 72 73 74 74 74 73 73 73 73 73 73 73 72 70 72 76 77 77 73 73 75 75 75 74 74 75 74 74 70 70 72 70 71 70 69 71 72 69 71 71 71 70 69
29 28 29 32 33 32 37 38 42 45 47 49 45 46 52 54 51 45 49 55 57 57 57 59 60 61 60 61 61 64 64 64 63 64 64 65 65 65 66 66 67 67 67 68 68 70 69 71 71 72 72 74 74 72 73 73 74 73 74 73 73 73 74 73 73 73 72 72 74 76 76 76 76 75 76 76 74 73 72 73 74 74 73 74 72 71 72 71 70 71 73 73 72 72 70 70 69
27 29 30 35 36 35 38 39 45 46 48 47 46 51 50 51 48 47 53 56 55 57 58 59 59 60 61 62 61 64 64 64 64 64 64 65 65 66 66 67 66 68 67 68 69 70 68 70 71 72 73 75 74 72 70 72 72 72 72 73 74 74 73 74 73 73 73 73 76 76 75 77 78 76 76 75 76 75 74 76 72 74 74 73 71 74 72 72 71 72 72 73 72 70 68 67 67
25 29 32 34 34 33 38 41 44 44 49 48 50 41 41 47 47 49 56 56 55 56 58 57 58 60 60 62 62 64 64 65 64 65 65 65 66 65 66 66 66 67 68 69 69 69 69 70 71 72 73 74 74 71 71 70 70 71 71 71 73 73 73 72 71 71 73 74 75 76 75 77 77 76 75 76 76 76 74 73 73 73 72 72 73 76 73 73 70 71 71 70 69 68 67 67 65
25 28 33 32 29 28 39 42 43 42 49 50 46 39 34 38 46 54 57 55 55 55 56 56 57 60 61 62 63 65 65 66 65 66 65 66 66 66 65 66 67 68 67 68 69 71 71 71 72 71 74 73 73 72 70 71 71 70 70 71 72 74 74 72 70 72 71 72 75 75 77 77 77 77 77 77 75 75 73 73 75 73 74 73 73 74 70 71 71 70 70 69 70 67 67 68 68
26 29 31 29 27 32 41 43 43 40 49 49 45 41 37 38 45 54 56 55 55 55 55 56 57 59 61 62 63 63 64 66 66 65 65 66 67 66 66 67 67 68 69 70 69 71 71 71 74 72 73 73 73 72 71 72 71 71 71 71 72 74 75 74 73 72 73 73 75 74 76 76 77 77 77 76 75 74 73 74 74 72 75 72 74 74 72 70 71 70 70 68 67 67 68 68 68
30 30 32 24 26 31 38 43 44 43 48 47 45 39 39 40 47 54 55 54 54 54 54 57 57 59 61 63 62 63 64 65 66 66 67 67 67 67 67 68 67 69 69 70 71 71 72 71 73 73 71 73 72 72 73 73 72 72 73 73 74 76 76 75 72 74 73 74 73 72 75 77 76 75 75 76 74 74 74 73 73 73 74 73 75 74 71 70 71 69 71 69 68 68 67 67 68
29 30 28 26 24 27 28 44 44 43 46 45 46 41 39 48 51 53 54 54 54 53 54 56 57 59 61 62 61 61 64 65 65 65 66 67 67 67 67 68 68 69 69 70 71 71 71 71 71 72 72 70 73 73 73 73 73 74 73 72 76 76 75 75 76 76 75 72 73 72 75 76 76 76 77 76 75 75 73 74 73 73 76 75 75 74 72 70 69 67 71 71 69 69 66 67 67
27 29 29 26 27 25 25 38 43 42 45 43 45 43 40 50 52 53 54 54 54 54 54 57 58 59 61 62 62 62 64 64 64 66 66 67 67 68 67 68 68 69 69 70 71 72 72 71 71 72 72 72 72 74 74 74 72 73 73 76 78 77 76 75 75 75 74 76 76 76 77 76 76 77 77 77 77 76 75 74 73 75 75 74 74 71 72 69 69 69 69 69 71 70 67 67 67
25 29 27 25 23 27 26 31 41 44 44 41 41 42 41 48 53 53 55 55 55 55 55 56 58 59 61 62 61 61 63 63 64 65 66 67 67 68 68 68 68 69 70 71 72 72 72 72 71 71 73 73 73 74 75 72 71 70 75 75 74 75 75 76 77 75 77 76 75 77 76 77 77 76 77 77 76 75 76 73 73 76 72 73 73 70 68 68 68 67 67 68 67 67 69 68 67
26 27 28 26 23 23 27 31 39 43 41 40 38 40 42 43 48 55 56 56 56 56 55 56 57 58 59 61 62 61 63 62 63 64 66 66 67 68 69 68 69 70 70 71 72 72 73 72 72 72 73 74 74 72 73 71 68 70 72 71 68 71 71 75 75 75 77 75 77 76 77 76 75 75 75 75 77 76 75 74 75 75 74 73 73 69 69 67 67 67 65 66 66 66 66 68 67
26 27 26 27 28 24 24 32 42 43 39 37 41 40 42 44 47 52 57 56 55 54 55 57 58 59 60 63 63 63 63 62 63 64 65 65 65 67 68 68 69 69 70 71 72 73 74 73 72 71 72 73 74 72 72 71 71 71 71 74 69 67 70 71 72 75 72 74 78 77 75 76 76 76 76 74 78 77 73 71 76 73 74 73 71 70 69 68 67 67 67 66 68 63 63 65 65
25 25 25 25 25 27 32 37 43 45 42 36 41 43 43 45 46 47 54 56 56 55 55 56 59 60 61 62 63 64 63 63 63 63 65 64 65 65 67 68 67 67 69 71 73 74 74 74 73 73 72 72 72 73 74 73 74 74 71 69 68 70 71 70 72 72 73 75 75 75 76 76 76 75 74 77 76 75 73 74 75 75 73 70 70 69 69 67 67 65 67 65 64 67 65 65 66
22 23 25 23 26 25 30 38 42 47 43 36 41 40 43 44 45 46 51 54 56 57 56 56 57 60 61 61 63 64 63 63 63 65 65 65 65 66 67 68 68 68 69 69 71 73 74 74 74 73 73 73 73 74 74 75 76 74 73 73 73 71 70 73 75 76 75 75 75 75 75 75 75 75 76 77 74 74 73 75 73 69 70 71 69 68 68 67 67 67 66 66 67 64 62 65 66
21 23 23 23 25 27 29 34 40 44 43 41 41 43 41 42 41 47 53 53 53 55 56 58 59 60 61 62 62 63 63 64 65 65 65 64 65 65 67 68 67 68 68 69 70 70 72 74 74 74 74 73 73 74 74 74 75 74 73 76 75 75 75 74 74 70 70 74 74 74 77 77 77 76 76 74 73 75 75 74 70 70 69 70 68 67 67 65 66 68 69 68 67 64 63 62 66
20 25 24 25 25 27 30 32 37 41 42 43 40 37 37 39 38 40 48 49 53 54 57 59 61 61 62 62 62 63 62 64 66 66 64 61 62 64 66 67 68 67 68 69 69 70 72 73 73 74 72 73 72 73 75 75 75 77 74 70 69 69 69 69 67 68 67 68 65 64 75 75 75 77 76 75 75 75 74 70 71 69 69 69 68 66 66 65 68 68 68 67 67 68 65 63 62
19 21 24 24 25 24 31 29 33 35 37 37 40 38 35 34 33 35 44 48 54 56 57 58 61 63 62 62 61 61 61 62 65 65 64 59 62 63 64 66 67 67 67 69 70 71 72 72 73 74 75 74 72 72 73 74 75 75 73 71 70 69 68 69 69 67 67 73 74 73 74 75 76 74 73 75 76 74 72 72 72 69 68 70 69 67 66 65 68 68 67 67 67 67 65 63 62
17 21 24 25 25 25 26 30 32 32 33 32 34 36 37 34 32 38 43 44 53 56 57 58 57 62 60 61 59 61 61 62 64 66 65 63 62 62 63 66 67 65 66 68 69 70 72 72 73 75 75 74 72 72 73 74 76 77 74 73 71 71 69 68 70 70 70 74 74 72 72 73 75 75 74 75 75 73 72 73 72 69 67 68 68 66 67 70 69 68 67 69 67 66 66 65 64
18 21 23 24 26 28 26 28 30 31 31 32 35 36 36 35 36 43 44 49 52 54 54 57 57 58 60 60 58 59 60 62 63 64 64 64 63 63 64 66 66 66 66 68 69 70 71 72 73 73 73 73 72 73 73 73 75 75 74 73 72 71 72 70 69 70 71 74 72 73 73 71 74 75 74 74 73 72 72 70 70 68 67 68 69 68 64 64 65 66 70 69 67 67 65 64 63
18 23 25 25 25 25 25 26 27 30 32 32 34 31 33 34 35 38 46 46 47 49 51 51 56 58 58 58 59 58 60 62 61 62 64 65 65 64 63 64 65 66 67 69 69 69 70 72 72 73 72 72 72 73 74 74 74 75 74 74 73 72 72 71 71 71 73 74 72 72 73 73 71 72 74 74 74 71 71 70 66 66 67 65 66 65 65 64 63 64 65 63 64 64 64 64 64
18 22 24 24 25 26 28 28 30 31 29 31 31 30 32 30 32 31 40 45 43 37 38 45 53 57 57 58 58 58 59 61 61 62 62 64 65 66 64 64 67 67 67 67 68 69 69 71 73 73 73 72 72 73 73 74 73 74 74 74 74 73 73 73 71 71 73 72 73 72 72 72 71 71 69 71 71 70 68 67 64 66 67 67 67 66 65 62 62 62 63 65 64 63 64 64 63
17 21 22 23 28 29 32 31 34 30 29 36 33 27 31 32 31 30 34 40 37 33 32 35 40 52 58 59 57 57 59 60 61 62 61 62 64 65 65 65 65 66 66 66 66 69 70 70 71 73 74 74 73 73 73 73 72 73 74 74 74 74 73 72 72 72 71 72 72 71 71 71 71 70 70 68 68 63 67 67 66 67 67 66 66 65 64 63 62 63 63 64 64 63 64 64 65
15 18 24 24 28 30 28 29 28 28 28 31 29 28 27 33 36 31 29 33 35 36 32 32 32 46 56 58 59 59 58 59 61 63 62 61 62 63 63 64 66 68 68 68 68 67 68 70 72 72 73 74 74 74 74 74 73 72 73 74 74 74 74 73 73 72 71 71 71 71 70 70 71 71 70 68 66 67 67 67 67 66 67 67 66 64 64 64 64 62 64 63 63 63 62 63 63
11 17 23 25 25 27 27 27 29 29 29 26 26 30 27 32 35 36 32 32 33 32 34 33 33 35 46 58 60 58 59 60 61 62 62 62 63 63 64 64 66 68 69 69 69 69 69 69 72 72 73 74 75 76 75 75 74 73 74 74 74 74 73 73 72 71 71 71 71 71 69 68 70 70 69 69 67 67 66 66 67 67 68 67 66 66 64 65 65 64 64 63 63 63 63 63 62
12 16 18 24 28 25 28 25 25 26 25 24 26 31 33 29 31 33 33 35 35 31 31 37 38 43 47 53 59 59 60 60 61 62 62 60 61 64 63 64 66 68 67 66 69 69 69 70 71 73 73 74 74 75 76 75 75 75 74 74 74 74 73 73 72 71 71 71 70 70 71 69 68 69 68 69 69 68 68 68 67 67 67 67 66 65 63 65 65 65 65 64 65 64 65 64 63
16 17 18 21 25 29 22 25 24 24 23 25 29 31 31 30 34 40 40 34 34 32 33 35 39 50 52 49 55 57 59 59 60 61 62 62 62 64 64 65 67 68 68 66 69 70 69 70 73 74 75 74 74 76 76 76 76 75 75 75 75 75 74 73 72 72 73 71 72 71 71 71 70 69 70 69 67 68 67 67 67 66 67 66 66 66 65 64 64 64 64 65 65 64 66 66 65
18 15 18 20 22 23 26 28 25 26 26 24 32 35 33 30 28 33 35 35 35 35 33 31 38 45 53 52 54 55 57 59 60 61 60 63 63 65 65 66 64 65 66 67 69 71 72 71 72 75 76 74 74 75 76 76 77 76 76 75 75 75 74 73 71 72 71 72 72 72 70 71 71 71 69 69 68 68 68 67 67 66 66 66 66 66 65 65 64 64 63 65 65 63 65 65 65
17 16 16 20 22 22 27 22 27 27 22 24 23 30 29 28 28 32 29 27 25 28 31 26 34 42 50 51 54 57 56 58 61 63 63 63 63 65 64 62 63 64 65 68 70 71 73 73 73 74 75 75 74 75 76 76 77 77 76 76 77 75 73 72 71 71 71 71 72 73 71 71 71 70 69 68 68 68 68 67 67 67 66 66 66 65 65 65 64 63 63 63 62 63 64 65 65
14 18 20 18 22 25 28 27 23 23 24 24 24 26 28 26 30 28 28 27 26 30 32 29 26 36 49 50 53 56 57 57 60 61 62 63 63 64 65 60 60 64 67 68 70 71 72 73 73 70 72 73 73 72 75 77 78 77 76 76 77 76 75 73 72 72 72 72 71 72 70 71 72 72 71 70 68 68 68 67 68 67 67 66 65 64 65 65 65 64 63 62 63 64 63 63 64
13 16 19 21 24 26 26 28 28 28 24 24 22 23 28 31 28 26 29 32 32 26 28 27 26 34 49 51 51 55 57 58 58 59 61 63 62 60 59 58 57 60 65 66 68 68 67 70 73 71 70 74 74 73 75 77 77 76 77 77 78 77 76 75 74 74 73 73 73 73 73 72 73 72 71 70 69 66 67 67 66 66 65 65 65 64 64 65 65 65 63 61 61 63 62 63 62
11 12 15 18 20 23 24 25 24 26 24 23 24 20 25 30 28 26 30 32 33 30 29 32 31 31 32 50 52 54 58 58 59 59 61 62 61 58 55 58 58 59 64 65 64 66 65 66 68 70 71 71 72 73 74 77 76 77 77 78 76 77 76 75 76 76 75 74 75 74 73 73 73 71 70 70 69 68 69 68 67 67 66 66 66 65 64 64 64 64 64 64 64 64 64 63 63
12 9 14 17 17 22 23 23 23 23 25 27 20 21 29 28 25 31 28 30 28 30 31 30 29 27 37 36 53 55 57 60 60 60 59 59 62 59 56 58 60 59 61 64 63 63 64 64 65 68 67 69 69 72 75 77 77 76 77 77 77 77 77 77 76 76 75 75 74 73 73 73 71 71 71 70 70 69 69 68 67 67 67 66 67 66 62 63 63 63 64 63 63 64 64 63 63